Weather History for KCEF - January, 2014

Change the Weather History Date:

Friday, January 24, 2014

  Actual Average Record
Temperature  
Mean Temperature 11 °F -  
Max Temperature 17 °F 28 °F 55 °F (1999)
Min Temperature 5 °F 13 °F -20 °F (2011)
Degree Days  
Heating Degree Days 54    
Moisture  
Dew Point -4 °F    
Average Humidity 49    
Maximum Humidity 59    
Minimum Humidity 38    
Precipitation  
Precipitation 0.00 in - - ()
Sea Level Pressure  
Sea Level Pressure 30.22 in    
Wind  
Wind Speed 13 mph (West)    
Max Wind Speed 17 mph    
Max Gust Speed 24 mph    
Visibility 10 miles    
Events      
Averages and records for this station are not official NWS values.
T = Trace of Precipitation, MM = Missing Value Source: NWS Daily Summary

Daily Weather History Graph

Daily Weather History Graph

Search for Another Location

Airport or City:

Trip Planner

Search our weather history database for the weather conditions in past years. The results will help you decide how hot, cold, wet, or windy it might be!

Date:

Astronomy

Jan. 24, 2014 Rise Set
Actual Time 7:10 AM EST 4:54 PM EST
Civil Twilight 6:40 AM EST 5:24 PM EST
Nautical Twilight 6:06 AM EST 5:58 PM EST
Astronomical Twilight 5:33 AM EST 6:31 PM EST
Moon 12:33 AM EST (1/24) 11:12 AM EST (1/24)
Length of Visible Light 10h 44m
Length of Day
9h 43m
Last Quarter, 45% of the Moon is Illuminated
Jan 24
Last Quarter
Jan 30
New
Feb 6
First Quarter
Feb 14
Full
Feb 22
Last Quarter

Hourly Weather History & Observations

Time (EST) Temp. Windchill Dew Point Humidity Pressure Visibility Wind Dir Wind Speed Gust Speed Precip Events Conditions
12:58 AM 9.5 °F -7.2 °F -2.6 °F 58% 30.22 in 10.0 mi WNW 15.0 mph 24.2 mph N/A   Clear
1:58 AM 8.6 °F -8.9 °F -3.3 °F 59% 30.22 in 10.0 mi WNW 16.1 mph 21.9 mph N/A   Clear
2:58 AM 8.1 °F -9.6 °F -5.1 °F 55% 30.25 in 10.0 mi WNW 16.1 mph 21.9 mph N/A   Clear
3:58 AM 6.8 °F -8.6 °F -6.3 °F 55% 30.26 in 10.0 mi NW 11.5 mph 20.7 mph N/A   Clear
4:58 AM 5.9 °F -13.0 °F -6.9 °F 56% 30.26 in 10.0 mi WNW 17.3 mph 20.7 mph N/A   Clear
5:58 AM 5.4 °F -8.6 °F -6.9 °F 57% 30.28 in 10.0 mi WNW 9.2 mph - N/A   Clear
6:58 AM 5.0 °F -10.0 °F -6.5 °F 59% 30.30 in 10.0 mi West 10.4 mph - N/A   Clear
7:58 AM 6.3 °F -8.4 °F -5.8 °F 58% 30.32 in 10.0 mi WNW 10.4 mph - N/A   Clear
8:58 AM 8.1 °F -5.3 °F -4.9 °F 56% 30.32 in 10.0 mi NW 9.2 mph - N/A   Clear
9:58 AM 10.4 °F -2.4 °F -5.1 °F 50% 30.32 in 10.0 mi NW 9.2 mph - N/A   Clear
10:58 AM 12.7 °F -0.4 °F -5.8 °F 43% 30.31 in 10.0 mi WNW 10.4 mph - N/A   Clear
11:58 AM 15.1 °F 0.5 °F -5.4 °F 40% 30.27 in 10.0 mi West 13.8 mph 21.9 mph N/A   Clear
12:58 PM 16.5 °F 3.0 °F -4.7 °F 39% 30.25 in 10.0 mi West 12.7 mph 20.7 mph N/A   Clear
1:40 PM 17.6 °F 3.2 °F -4.0 °F 38% 30.20 in 10.0 mi NW 15.0 mph 21.9 mph N/A   Clear
1:58 PM 16.9 °F 2.8 °F -4.4 °F 39% 30.24 in 10.0 mi WNW 13.8 mph 20.7 mph N/A   Clear
2:58 PM 16.9 °F 5.5 °F -4.9 °F 38% 30.20 in 10.0 mi West 9.2 mph - N/A   Clear
3:58 PM 16.5 °F 6.9 °F -4.9 °F 39% 30.19 in 10.0 mi WSW 6.9 mph - N/A   Clear
4:58 PM 14.4 °F 3.3 °F -5.4 °F 41% 30.19 in 10.0 mi WSW 8.1 mph - N/A   Clear
5:58 PM 10.9 °F 2.9 °F -4.4 °F 50% 30.18 in 10.0 mi South 4.6 mph - N/A   Clear
6:58 PM 13.3 °F 2.0 °F -2.2 °F 50% 30.18 in 10.0 mi South 8.1 mph - N/A   Clear
7:58 PM 14.2 °F 1.4 °F -2.4 °F 48% 30.16 in 10.0 mi South 10.4 mph - N/A   Clear
8:58 PM 14.2 °F 4.1 °F -2.0 °F 49% 30.13 in 10.0 mi South 6.9 mph - N/A   Clear
9:58 PM 14.4 °F 0.9 °F -1.7 °F 49% 30.11 in 10.0 mi South 11.5 mph - N/A   Clear
10:58 PM 15.3 °F 0.2 °F -1.5 °F 48% 30.09 in 10.0 mi SSW 15.0 mph 24.2 mph N/A   Scattered Clouds
11:58 PM 14.7 °F 0.1 °F -0.8 °F 50% 30.05 in 10.0 mi SSW 13.8 mph 18.4 mph N/A   Scattered Clouds